Weather History for Topeka Forbes, KS

Change the Weather History Date:

Sunday, April 28, 2013

  Actual Average Record
Temperature  
Mean Temperature 58 °F -  
Max Temperature 77 °F 68 °F 88 °F (1951)
Min Temperature 39 °F 45 °F 30 °F (1965)
Degree Days  
Heating Degree Days 7    
Growing Degree Days 8 (Base 50)    
Moisture  
Dew Point 46 °F    
Average Humidity 86    
Maximum Humidity 100    
Minimum Humidity 46    
Precipitation  
Precipitation 0.00 in - - ()
Sea Level Pressure  
Sea Level Pressure 29.93 in    
Wind  
Wind Speed 6 mph (South)    
Max Wind Speed 18 mph    
Max Gust Speed 23 mph    
Visibility 4 miles    
Events Fog    
Averages and records for this station are not official NWS values.
T = Trace of Precipitation, MM = Missing Value Source: NWS Daily Summary

Daily Weather History Graph

Daily Weather History Graph

Search for Another Location

Airport:

Trip Planner

Search our weather history database for the weather conditions in past years. The results will help you decide how hot, cold, wet, or windy it might be!

Date:

Astronomy

Apr. 28, 2013 Rise Set
Actual Time 6:28 AM CDT 8:12 PM CDT
Civil Twilight 5:59 AM CDT 8:41 PM CDT
Nautical Twilight 5:25 AM CDT 9:16 PM CDT
Astronomical Twilight 4:48 AM CDT 9:53 PM CDT
Moon 11:43 PM CDT (4/28) 8:46 AM CDT (4/28)
Length of Visible Light 14h 41m
Length of Day
13h 44m
Waning Gibbous, 88% of the Moon is Illuminated
Apr 28
Waning Gibbous
May 2
Last Quarter
May 9
New
May 17
First Quarter
May 24
Full

Hourly Weather History & Observations

Time (CDT) Temp. Windchill Dew Point Humidity Pressure Visibility Wind Dir Wind Speed Gust Speed Precip Events Conditions
12:00 AM 42.8 °F 41.1 °F 42.8 °F 100% 30.02 in 0.8 mi South 3.5 mph - N/A   Clear
12:06 AM 42.8 °F 41.1 °F 42.8 °F 100% 30.02 in 2.0 mi South 3.5 mph - N/A   Clear
12:13 AM 44.6 °F 41.4 °F 42.8 °F 93% 30.01 in 8.0 mi South 5.8 mph - N/A   Clear
12:48 AM 44.6 °F 42.2 °F 42.8 °F 93% 30.01 in 1.8 mi South 4.6 mph - N/A   Clear
12:53 AM 44.1 °F 40.8 °F 43.0 °F 96% 30.01 in 1.8 mi South 5.8 mph - N/A   Clear
12:58 AM 44.6 °F 41.4 °F 42.8 °F 93% 30.01 in 3.0 mi South 5.8 mph - N/A   Clear
1:53 AM 44.1 °F 40.8 °F 43.0 °F 96% 30.00 in 4.0 mi SSW 5.8 mph - N/A   Clear
2:13 AM 44.6 °F 42.2 °F 42.8 °F 93% 29.99 in 1.5 mi South 4.6 mph - N/A   Clear
2:18 AM 42.8 °F 40.1 °F 42.8 °F 100% 29.98 in 0.8 mi South 4.6 mph - N/A   Mist
2:31 AM 42.8 °F 38.6 °F 42.8 °F 100% 29.98 in 0.2 mi South 6.9 mph - N/A Fog Fog
2:38 AM 44.6 °F 41.4 °F 42.8 °F 93% 29.97 in 0.8 mi South 5.8 mph - N/A   Mist
2:53 AM 41.0 °F 39.0 °F 39.9 °F 96% 29.98 in 0.2 mi South 3.5 mph - N/A Fog Fog
3:12 AM 41.0 °F 39.0 °F 41.0 °F 100% 29.98 in 0.5 mi WSW 3.5 mph - N/A Fog Fog
3:30 AM 41.0 °F - 41.0 °F 100% 29.98 in 0.2 mi Calm Calm - N/A Fog Fog
3:51 AM 39.2 °F - 39.2 °F 100% 29.98 in 0.2 mi Calm Calm - N/A Fog Fog
3:53 AM 39.0 °F - 37.9 °F 96% 29.99 in 0.2 mi Calm Calm - N/A Fog Fog
4:09 AM 41.0 °F 37.1 °F 39.2 °F 93% 29.97 in 0.5 mi SW 5.8 mph - N/A Fog Fog
4:15 AM 42.8 °F 38.6 °F 42.8 °F 100% 29.97 in 1.0 mi SW 6.9 mph - N/A   Clear
4:41 AM 42.8 °F 41.1 °F 42.8 °F 100% 29.98 in 3.0 mi SSW 3.5 mph - N/A   Clear
4:53 AM 42.1 °F 40.2 °F 41.0 °F 96% 29.98 in 1.5 mi South 3.5 mph - N/A   Clear
4:58 AM 39.2 °F 37.0 °F 39.2 °F 100% 29.97 in 0.8 mi SE 3.5 mph - N/A   Mist
5:07 AM 39.2 °F - 39.2 °F 100% 29.97 in 0.5 mi Calm Calm - N/A Fog Fog
5:16 AM 39.2 °F 37.0 °F 39.2 °F 100% 29.97 in 0.2 mi South 3.5 mph - N/A Fog Fog
5:53 AM 39.9 °F 36.7 °F 39.0 °F 97% 29.98 in 0.5 mi SSW 4.6 mph - N/A Fog Fog
6:03 AM 41.0 °F 38.0 °F 39.2 °F 93% 29.97 in 0.2 mi SW 4.6 mph - N/A Fog Fog
6:13 AM 42.8 °F 40.1 °F 41.0 °F 93% 29.97 in 0.8 mi SW 4.6 mph - N/A   Mist
6:17 AM 41.0 °F 39.0 °F 41.0 °F 100% 29.97 in 1.2 mi SW 3.5 mph - N/A   Scattered Clouds
6:48 AM 42.8 °F 39.3 °F 41.0 °F 93% 29.98 in 3.0 mi SSW 5.8 mph - N/A   Clear
6:53 AM 44.1 °F 40.1 °F 43.0 °F 96% 29.98 in 5.0 mi SSW 6.9 mph - N/A   Clear
8:53 AM 54.0 °F - 51.1 °F 90% 29.98 in 10.0 mi SSW 10.4 mph - N/A   Clear
9:53 AM 57.9 °F - 52.0 °F 81% 29.96 in 10.0 mi South 11.5 mph - N/A   Clear
10:53 AM 61.0 °F - 54.0 °F 78% 29.96 in 10.0 mi South 12.7 mph - N/A   Clear
11:53 AM 64.9 °F - 55.9 °F 73% 29.95 in 10.0 mi South 13.8 mph - N/A   Clear
12:53 PM 69.1 °F - 55.9 °F 63% 29.92 in 10.0 mi South 15.0 mph - N/A   Clear
1:53 PM 72.0 °F - 55.9 °F 57% 29.89 in 10.0 mi South 15.0 mph - N/A   Clear
2:53 PM 73.9 °F - 55.0 °F 52% 29.85 in 10.0 mi SSE 16.1 mph - N/A   Clear
3:53 PM 75.9 °F - 54.0 °F 46% 29.82 in 10.0 mi South 17.3 mph 23.0 mph N/A   Clear
4:53 PM 77.0 °F - 55.0 °F 47% 29.79 in 10.0 mi South 15.0 mph - N/A   Clear
5:53 PM 75.9 °F - 54.0 °F 46% 29.78 in 10.0 mi South 18.4 mph 21.9 mph N/A   Clear
6:53 PM 75.0 °F - 55.9 °F 51% 29.76 in 10.0 mi South 13.8 mph 20.7 mph N/A   Clear
7:53 PM 70.0 °F - 55.9 °F 61% 29.76 in 10.0 mi SSE 10.4 mph - N/A   Clear
8:53 PM 66.9 °F - 55.9 °F 68% 29.76 in 10.0 mi SSE 11.5 mph - N/A   Clear
9:53 PM 64.9 °F - 55.9 °F 73% 29.77 in 10.0 mi South 12.7 mph - N/A   Clear
10:53 PM 63.0 °F - 55.0 °F 75% 29.77 in 10.0 mi SSE 9.2 mph - N/A   Clear
11:53 PM 61.0 °F - 55.0 °F 81% 29.76 in 10.0 mi South 11.5 mph - N/A   Clear